Total_Precipitation_Accumulation
2.10 2.10 2.09 2.12 2.03 2.11 2.12 2.02 1.75 1.57 1.42 1.23 1.08 1.12 1.23 1.22 1.33 1.44 1.71 1.78 1.65 1.83 2.22 2.52 2.54 2.55 2.50 2.40 2.29 2.22 2.14 2.09 1.94 1.72 1.44 1.28 1.22 1.11 1.09 1.08 1.11 1.09 1.04
2.48 2.47 2.56 2.54 2.29 2.28 2.36 2.39 2.22 1.99 1.70 1.49 1.31 1.27 1.26 1.25 1.37 1.55 1.76 1.91 1.85 1.78 2.10 2.54 2.75 2.87 2.85 2.83 2.70 2.46 2.28 2.17 2.10 1.94 1.76 1.53 1.39 1.27 1.21 1.16 1.14 1.10 1.07
2.77 2.76 2.91 2.89 2.56 2.46 2.57 2.67 2.62 2.43 2.03 1.75 1.64 1.61 1.54 1.55 1.53 1.62 1.81 1.95 1.96 1.91 2.03 2.17 2.37 2.56 2.70 2.84 2.88 2.73 2.53 2.31 2.17 2.06 2.00 1.89 1.70 1.51 1.38 1.31 1.27 1.20 1.12
2.82 2.91 2.85 2.70 2.62 2.67 2.89 3.07 2.98 2.86 2.57 2.30 2.10 1.86 1.70 1.69 1.64 1.79 1.84 1.91 2.19 2.14 2.07 1.89 1.97 2.17 2.41 2.74 2.99 3.03 2.91 2.69 2.41 2.21 2.14 2.04 1.87 1.64 1.47 1.39 1.37 1.30 1.22
2.94 3.09 3.11 3.06 2.99 3.01 3.08 2.98 3.11 2.94 2.96 2.77 2.32 2.06 1.86 1.80 1.86 1.91 1.97 1.98 2.10 2.23 2.19 1.98 1.91 2.00 2.12 2.43 2.69 2.97 3.09 3.00 2.75 2.49 2.33 2.22 2.06 1.86 1.69 1.57 1.48 1.40 1.31
3.24 3.35 3.31 3.37 3.43 3.47 3.31 3.21 3.19 3.00 2.86 2.77 2.42 2.22 2.06 1.92 1.88 1.86 1.81 1.85 1.95 1.91 1.99 1.98 2.02 1.91 1.98 2.11 2.31 2.69 3.08 3.19 3.13 2.91 2.71 2.57 2.32 2.06 1.84 1.72 1.62 1.56 1.48
3.82 3.83 3.85 3.83 3.71 3.62 3.47 3.28 3.14 3.01 2.80 2.60 2.54 2.24 1.90 1.66 1.60 1.56 1.60 1.68 1.68 1.66 1.75 1.92 2.02 1.97 1.86 1.83 1.97 2.40 2.96 3.24 3.24 3.13 2.97 2.87 2.58 2.24 1.99 1.82 1.72 1.63 1.56
4.51 4.30 4.24 4.04 3.73 3.54 3.40 3.20 3.05 2.90 2.64 2.49 2.46 2.44 2.05 1.74 1.46 1.30 1.38 1.40 1.46 1.60 1.68 1.65 1.68 1.69 1.66 1.68 1.64 1.88 2.15 2.42 2.68 2.90 3.00 2.91 2.72 2.47 2.23 2.09 2.02 1.93 1.83
4.58 4.28 3.98 3.81 3.62 3.43 3.26 3.16 3.03 2.90 2.67 2.50 2.41 2.55 2.41 2.10 1.71 1.52 1.40 1.41 1.48 1.54 1.54 1.49 1.46 1.45 1.49 1.57 1.60 1.67 1.82 1.97 2.20 2.45 2.66 2.70 2.63 2.49 2.35 2.28 2.26 2.27 2.25
4.23 3.79 3.56 3.54 3.38 3.17 2.99 2.77 2.63 2.57 2.50 2.41 2.36 2.25 2.23 2.16 2.01 1.81 1.62 1.62 1.64 1.61 1.55 1.50 1.55 1.60 1.61 1.68 1.67 1.55 1.52 1.55 1.77 1.97 2.20 2.33 2.31 2.29 2.29 2.38 2.49 2.62 2.63
3.64 3.36 3.16 3.18 3.09 2.84 2.61 2.37 2.18 2.09 2.09 2.15 2.17 2.13 2.05 2.00 1.85 1.76 1.69 1.62 1.59 1.58 1.51 1.48 1.53 1.60 1.60 1.54 1.51 1.49 1.50 1.44 1.56 1.70 1.84 2.05 2.18 2.22 2.26 2.37 2.48 2.57 2.65
3.08 2.77 2.51 2.39 2.28 2.13 2.02 1.92 1.80 1.74 1.73 1.83 1.89 1.85 1.84 1.85 1.82 1.81 1.76 1.63 1.61 1.68 1.56 1.44 1.37 1.34 1.35 1.40 1.43 1.56 1.48 1.46 1.52 1.55 1.53 1.56 1.71 1.91 2.08 2.19 2.24 2.36 2.52
2.44 2.15 1.96 1.85 1.78 1.73 1.67 1.64 1.60 1.55 1.46 1.49 1.52 1.55 1.57 1.55 1.59 1.71 1.84 1.84 1.76 1.64 1.56 1.48 1.33 1.28 1.28 1.29 1.45 1.56 1.43 1.38 1.44 1.45 1.35 1.29 1.34 1.47 1.56 1.69 1.85 2.01 2.16
1.89 1.77 1.63 1.53 1.49 1.49 1.45 1.45 1.42 1.33 1.25 1.22 1.17 1.21 1.27 1.27 1.41 1.60 1.72 1.88 1.93 1.72 1.48 1.41 1.33 1.24 1.25 1.27 1.45 1.49 1.30 1.24 1.22 1.28 1.28 1.22 1.18 1.19 1.22 1.28 1.37 1.44 1.60
1.46 1.44 1.39 1.34 1.25 1.18 1.12 1.11 1.09 1.08 1.10 1.11 1.06 1.03 1.06 1.09 1.20 1.34 1.46 1.68 1.87 1.81 1.55 1.33 1.31 1.28 1.23 1.30 1.52 1.30 1.19 1.21 1.10 1.03 1.04 1.04 1.05 1.07 1.07 1.03 1.04 1.09 1.16
1.13 1.15 1.11 1.06 1.05 1.06 0.99 0.91 0.87 0.90 0.93 0.97 1.00 0.94 0.93 0.95 1.00 1.06 1.15 1.30 1.50 1.65 1.57 1.30 1.18 1.12 1.10 1.09 1.34 1.18 1.19 1.21 1.02 0.89 0.84 0.85 0.88 0.92 0.93 0.89 0.89 0.93 0.99
0.96 0.93 0.92 0.89 0.87 0.87 0.86 0.87 0.84 0.84 0.89 0.90 0.90 0.88 0.86 0.87 0.92 0.92 0.96 1.07 1.21 1.38 1.52 1.41 1.21 1.10 1.06 1.10 1.16 1.08 1.05 0.99 0.92 0.90 0.78 0.73 0.75 0.81 0.81 0.79 0.82 0.85 0.87
0.85 0.82 0.83 0.79 0.72 0.70 0.74 0.79 0.81 0.80 0.88 0.87 0.85 0.86 0.84 0.84 0.89 0.88 0.91 0.96 1.09 1.26 1.41 1.48 1.31 1.18 1.09 1.04 1.05 1.01 0.87 0.82 0.83 0.94 0.81 0.72 0.68 0.67 0.73 0.71 0.71 0.75 0.81
0.80 0.77 0.71 0.69 0.68 0.65 0.67 0.67 0.67 0.70 0.76 0.81 0.82 0.88 0.90 0.89 0.87 0.85 0.89 0.95 1.07 1.20 1.36 1.41 1.35 1.24 1.19 1.10 1.13 1.06 0.94 1.00 0.85 0.86 0.80 0.74 0.69 0.66 0.86 0.92 0.70 0.66 0.70
0.70 0.68 0.60 0.59 0.65 0.65 0.58 0.54 0.55 0.59 0.64 0.66 0.69 0.82 0.88 0.88 0.88 0.92 0.95 0.99 1.07 1.22 1.32 1.36 1.30 1.22 1.18 1.18 1.22 1.24 1.18 1.12 0.98 0.77 0.80 0.76 0.74 0.74 1.07 1.61 1.08 0.77 0.73
0.69 0.68 0.61 0.55 0.59 0.59 0.54 0.52 0.49 0.49 0.55 0.58 0.60 0.68 0.75 0.77 0.77 0.83 0.85 0.93 1.06 1.21 1.28 1.34 1.30 1.24 1.17 1.25 1.29 1.23 1.18 1.19 1.06 0.90 0.88 0.81 0.94 1.24 1.79 2.42 1.93 1.28 1.04
0.77 0.72 0.66 0.60 0.58 0.56 0.55 0.48 0.46 0.47 0.53 0.61 0.67 0.70 0.65 0.66 0.64 0.62 0.68 0.78 0.93 1.12 1.27 1.34 1.31 1.28 1.22 1.23 1.32 1.31 1.29 1.32 1.30 1.02 0.93 0.93 1.15 1.89 2.58 2.92 2.46 1.63 1.29
0.88 0.77 0.66 0.62 0.59 0.52 0.45 0.38 0.37 0.44 0.56 0.66 0.73 0.71 0.61 0.59 0.68 0.68 0.68 0.71 0.82 0.94 1.15 1.35 1.41 1.30 1.26 1.27 1.39 1.46 1.39 1.38 1.36 1.15 1.13 1.19 1.39 2.17 2.46 2.64 2.45 1.71 1.40
0.81 0.75 0.66 0.61 0.57 0.43 0.36 0.34 0.35 0.40 0.48 0.51 0.55 0.63 0.72 0.73 0.67 0.69 0.68 0.78 0.87 0.97 1.05 1.17 1.33 1.26 1.20 1.26 1.36 1.41 1.35 1.30 1.22 1.12 1.14 1.32 1.53 2.04 2.07 2.18 2.24 1.75 1.45
0.76 0.68 0.63 0.60 0.56 0.43 0.36 0.33 0.35 0.42 0.46 0.43 0.40 0.45 0.53 0.56 0.55 0.63 0.73 0.88 0.94 1.04 1.07 1.24 1.26 1.19 1.18 1.19 1.14 1.18 1.37 1.46 1.37 1.11 1.02 1.21 1.43 1.71 1.74 1.82 1.79 1.65 1.50
0.71 0.58 0.52 0.52 0.49 0.45 0.36 0.30 0.31 0.36 0.43 0.40 0.43 0.49 0.49 0.43 0.45 0.57 0.74 0.94 1.08 1.12 1.21 1.41 1.39 1.35 1.25 1.19 1.09 1.12 1.39 1.57 1.52 1.26 1.01 1.07 1.23 1.37 1.59 1.57 1.47 1.40 1.47